Weather History for KL35 - April, 2013

Change the Weather History Date:

Thursday, April 18, 2013

  Actual Average (KBUO) Record (KBUO)
Temperature  
Mean Temperature 39 °F -  
Max Temperature 50 °F 67 °F 89 °F (1999)
Min Temperature 28 °F 44 °F 41 °F (1998)
Degree Days  
Heating Degree Days 26    
Moisture  
Dew Point -4 °F    
Average Humidity 19    
Maximum Humidity 31    
Minimum Humidity 9    
Precipitation  
Precipitation 0.00 in - - ()
Sea Level Pressure  
Sea Level Pressure 30.26 in    
Wind  
Wind Speed 8 mph (NE)    
Max Wind Speed 16 mph    
Max Gust Speed 28 mph    
Visibility 10 miles    
Events      
Averages and records for this station are not official NWS values.
T = Trace of Precipitation, MM = Missing Value Source: NWS Daily Summary

Daily Weather History Graph

Daily Weather History Graph

Search for Another Location

Airport or City:

Trip Planner

Search our weather history database for the weather conditions in past years. The results will help you decide how hot, cold, wet, or windy it might be!

Date:

Astronomy

Apr. 18, 2013 Rise Set
Actual Time 6:12 AM PDT 7:21 PM PDT
Civil Twilight 5:46 AM PDT 7:47 PM PDT
Nautical Twilight 5:15 AM PDT 8:18 PM PDT
Astronomical Twilight 4:43 AM PDT 8:50 PM PDT
Moon 12:30 PM PDT (4/18) 1:35 AM PDT (4/18)
Length of Visible Light 14h 01m
Length of Day
13h 09m
First Quarter, 53% of the Moon is Illuminated
Apr 18
First Quarter
Apr 25
Full
May 2
Last Quarter
May 9
New
May 17
First Quarter

Hourly Weather History & Observations

Time (PDT) Temp. Windchill Dew Point Humidity Pressure Visibility Wind Dir Wind Speed Gust Speed Precip Events Conditions
12:15 AM 33.8 °F 27.0 °F -4.0 °F 20% 30.21 in 10.0 mi NE 8.1 mph - N/A   Clear
12:35 AM 33.8 °F 25.3 °F -4.0 °F 20% 30.21 in 10.0 mi NE 11.5 mph 16.1 mph N/A   Clear
12:55 AM 33.8 °F 27.0 °F -4.0 °F 20% 30.22 in 10.0 mi ENE 8.1 mph - N/A   Clear
1:15 AM 33.8 °F 27.0 °F -4.0 °F 20% 30.21 in 10.0 mi East 8.1 mph - N/A   Clear
1:35 AM 33.8 °F 27.0 °F -4.0 °F 20% 30.22 in 10.0 mi ENE 8.1 mph - N/A   Clear
1:55 AM 33.8 °F 27.7 °F -4.0 °F 20% 30.22 in 10.0 mi North 6.9 mph - N/A   Clear
2:15 AM 33.8 °F 25.8 °F -4.0 °F 20% 30.21 in 10.0 mi NE 10.4 mph 17.3 mph N/A   Clear
2:35 AM 32.0 °F 25.6 °F -0.4 °F 25% 30.21 in 10.0 mi NE 6.9 mph - N/A   Clear
2:55 AM 32.0 °F 24.2 °F 1.4 °F 27% 30.21 in 10.0 mi NE 9.2 mph 26.5 mph N/A   Clear
3:15 AM 32.0 °F 26.4 °F 1.4 °F 27% 30.22 in 10.0 mi NE 5.8 mph 19.6 mph N/A   Clear
3:35 AM 32.0 °F 22.1 °F 1.4 °F 27% 30.21 in 10.0 mi NE 13.8 mph 27.6 mph N/A   Clear
3:55 AM 32.0 °F 22.5 °F 1.4 °F 27% 30.22 in 10.0 mi NE 12.7 mph 24.2 mph N/A   Clear
4:15 AM 32.0 °F 24.2 °F 1.4 °F 27% 30.23 in 10.0 mi NE 9.2 mph 17.3 mph N/A   Clear
4:35 AM 32.0 °F 24.2 °F 1.4 °F 27% 30.23 in 10.0 mi East 9.2 mph - N/A   Clear
4:55 AM 30.2 °F 20.8 °F 1.4 °F 29% 30.23 in 10.0 mi ENE 11.5 mph - N/A   Clear
5:15 AM 30.2 °F 23.4 °F 1.4 °F 29% 30.23 in 10.0 mi ENE 6.9 mph - N/A   Clear
5:35 AM 28.4 °F 21.2 °F 1.4 °F 31% 30.23 in 10.0 mi ENE 6.9 mph - N/A   Clear
5:55 AM 28.4 °F 21.2 °F 1.4 °F 31% 30.23 in 10.0 mi NE 6.9 mph - N/A   Clear
6:15 AM 28.4 °F 23.3 °F 1.4 °F 31% 30.24 in 10.0 mi ENE 4.6 mph - N/A   Clear
6:35 AM 28.4 °F 23.3 °F 1.4 °F 31% 30.25 in 10.0 mi ENE 4.6 mph - N/A   Clear
6:55 AM 30.2 °F 25.4 °F 1.4 °F 29% 30.27 in 10.0 mi East 4.6 mph - N/A   Clear
7:15 AM 32.0 °F 26.4 °F 1.4 °F 27% 30.26 in 10.0 mi East 5.8 mph - N/A   Clear
7:35 AM 32.0 °F 25.6 °F 1.4 °F 27% 30.27 in 10.0 mi East 6.9 mph - N/A   Clear
7:55 AM 32.0 °F 24.2 °F -0.4 °F 25% 30.27 in 10.0 mi ENE 9.2 mph - N/A   Clear
8:15 AM 32.0 °F 22.5 °F -0.4 °F 25% 30.28 in 10.0 mi ENE 12.7 mph 20.7 mph N/A   Clear
8:35 AM 33.8 °F 24.3 °F -0.4 °F 23% 30.28 in 10.0 mi ENE 13.8 mph 21.9 mph N/A   Clear
8:55 AM 33.8 °F 23.5 °F -2.2 °F 22% 30.27 in 10.0 mi ENE 16.1 mph 19.6 mph N/A   Clear
9:15 AM 35.6 °F 28.6 °F -2.2 °F 20% 30.28 in 10.0 mi East 9.2 mph 16.1 mph N/A   Clear
9:35 AM 35.6 °F 26.6 °F -2.2 °F 20% 30.27 in 10.0 mi East 13.8 mph 17.3 mph N/A   Clear
9:55 AM 37.4 °F 28.2 °F -4.0 °F 17% 30.27 in 10.0 mi ENE 16.1 mph 23.0 mph N/A   Clear
10:15 AM 37.4 °F 29.8 °F -5.8 °F 16% 30.27 in 10.0 mi ENE 11.5 mph 19.6 mph N/A   Clear
10:35 AM 37.4 °F 28.2 °F -4.0 °F 17% 30.28 in 10.0 mi ENE 16.1 mph 20.7 mph N/A   Clear
10:55 AM 37.4 °F 30.8 °F -4.0 °F 17% 30.28 in 10.0 mi ENE 9.2 mph - N/A   Clear
11:15 AM 41.0 °F 37.1 °F -5.8 °F 14% 30.28 in 10.0 mi North 5.8 mph - N/A   Clear
11:35 AM 41.0 °F 35.8 °F -5.8 °F 14% 30.28 in 10.0 mi NE 8.1 mph - N/A   Clear
11:55 AM 42.8 °F 38.0 °F -7.6 °F 12% 30.28 in 10.0 mi ENE 8.1 mph - N/A   Clear
12:15 PM 42.8 °F 38.0 °F -5.8 °F 13% 30.28 in 10.0 mi NNE 8.1 mph 17.3 mph N/A   Clear
12:35 PM 42.8 °F 37.5 °F -5.8 °F 13% 30.28 in 10.0 mi NE 9.2 mph 17.3 mph N/A   Clear
12:55 PM 42.8 °F 37.5 °F -5.8 °F 13% 30.28 in 10.0 mi NE 9.2 mph - N/A   Clear
1:35 PM 44.6 °F 38.8 °F -7.6 °F 11% 30.28 in 10.0 mi NE 11.5 mph 18.4 mph N/A   Clear
1:55 PM 44.6 °F 38.1 °F -5.8 °F 12% 30.28 in 10.0 mi NE 13.8 mph 18.4 mph N/A   Clear
2:15 PM 44.6 °F 38.4 °F -7.6 °F 11% 30.28 in 10.0 mi NE 12.7 mph 17.3 mph N/A   Clear
2:35 PM 44.6 °F 39.2 °F -7.6 °F 11% 30.27 in 10.0 mi ENE 10.4 mph - N/A   Clear
2:55 PM 46.4 °F 41.5 °F -7.6 °F 10% 30.27 in 10.0 mi East 10.4 mph 18.4 mph N/A   Clear
3:15 PM 46.4 °F 41.1 °F -7.6 °F 10% 30.26 in 10.0 mi ENE 11.5 mph - N/A   Clear
3:35 PM 46.4 °F 41.9 °F -7.6 °F 10% 30.26 in 10.0 mi ENE 9.2 mph - N/A   Clear
3:55 PM 48.2 °F - -7.6 °F 10% 30.25 in 10.0 mi ENE 9.2 mph - N/A   Clear
4:15 PM 50.0 °F - -7.6 °F 9% 30.25 in 10.0 mi East 4.6 mph - N/A   Clear
4:35 PM 48.2 °F - -7.6 °F 10% 30.25 in 10.0 mi NNE 5.8 mph - N/A   Clear
4:55 PM 48.2 °F - -9.4 °F 9% 30.25 in 10.0 mi NNE 8.1 mph - N/A   Clear
5:15 PM 48.2 °F - -7.6 °F 10% 30.26 in 10.0 mi North 6.9 mph - N/A   Clear
5:35 PM 46.4 °F 42.4 °F -7.6 °F 10% 30.27 in 10.0 mi North 8.1 mph - N/A   Clear
5:55 PM 46.4 °F 42.9 °F -7.6 °F 10% 30.27 in 10.0 mi NNW 6.9 mph - N/A   Clear
6:15 PM 44.6 °F 42.2 °F -7.6 °F 11% 30.27 in 10.0 mi North 4.6 mph - N/A   Clear
6:35 PM 44.6 °F 42.2 °F -7.6 °F 11% 30.28 in 10.0 mi North 4.6 mph - N/A   Clear
8:35 PM 35.6 °F - -5.8 °F 17% 30.30 in 10.0 mi Calm Calm - N/A   Clear
8:55 PM 33.8 °F - -5.8 °F 18% 30.31 in 10.0 mi Calm Calm - N/A   Clear
9:15 PM 33.8 °F - -4.0 °F 20% 30.31 in 10.0 mi Calm Calm - N/A   Clear
9:35 PM 32.0 °F - -4.0 °F 21% 30.31 in 10.0 mi Calm Calm - N/A   Clear
9:55 PM 32.0 °F - -4.0 °F 21% 30.32 in 10.0 mi Calm Calm - N/A   Clear
10:15 PM 32.0 °F - -4.0 °F 21% 30.32 in 10.0 mi Calm Calm - N/A   Clear
10:35 PM 30.2 °F - -4.0 °F 23% 30.32 in 10.0 mi Calm Calm - N/A   Clear
10:55 PM 30.2 °F - -4.0 °F 23% 30.32 in 10.0 mi Calm Calm - N/A   Clear
11:15 PM 30.2 °F - -5.8 °F 21% 30.31 in 10.0 mi Calm Calm - N/A   Clear
11:35 PM 30.2 °F - -5.8 °F 21% 30.31 in 10.0 mi Calm Calm - N/A   Clear
11:55 PM 30.2 °F - -4.0 °F 23% 30.31 in 10.0 mi Calm Calm - N/A   Clear